This is the latest recevied weather packets stored in our database for station/object OH6HPS. If no packets are shown the sender has not sent any weather packets the latest 10 day(s).
| Time | Temp. | Humidity | Pressure | Rain* | Wind** | Luminosity | Snow |
|---|---|---|---|---|---|---|---|
| 1777504457 | 5° C | 67% | 1023.2 hPa | 0 mm | - | 0 W/m² | - |
| 1777503858 | 5° C | 65% | 1023.2 hPa | 0 mm | - | 0 W/m² | - |
| 1777503257 | 5° C | 64% | 1023.2 hPa | 0 mm | - | 0 W/m² | - |
| 1777502658 | 5° C | 64% | 1023.3 hPa | 0 mm | - | 0 W/m² | - |
| 1777502057 | 5° C | 63% | 1023.1 hPa | 0 mm | - | 0 W/m² | - |
| 1777501470 | 5° C | 62% | 1023.2 hPa | 0 mm | - | 0 W/m² | - |
| 1777500856 | 5° C | 61% | 1023.2 hPa | 0 mm | - | 0 W/m² | - |
| 1777500256 | 5° C | 61% | 1023.3 hPa | 0 mm | - | 0 W/m² | - |
| 1777499656 | 5° C | 60% | 1023.3 hPa | 0 mm | - | 0 W/m² | - |
| 1777499055 | 5° C | 59% | 1023.3 hPa | 0 mm | - | 0 W/m² | - |
| 1777498456 | 5° C | 59% | 1023.4 hPa | 0 mm | - | 0 W/m² | - |
| 1777497856 | 5° C | 59% | 1023.4 hPa | 0 mm | - | 0 W/m² | - |
| 1777497255 | 5° C | 58% | 1023.3 hPa | 0 mm | - | 0 W/m² | - |
| 1777496656 | 5° C | 58% | 1023.4 hPa | 0 mm | - | 0 W/m² | - |
| 1777496054 | 4.44° C | 58% | 1023.5 hPa | 0 mm | - | 0 W/m² | - |
| 1777495454 | 4.44° C | 58% | 1023.5 hPa | 0 mm | - | 0 W/m² | - |
| 1777494854 | 3.89° C | 59% | 1023.4 hPa | 0 mm | - | 0 W/m² | - |
| 1777494255 | 3.89° C | 60% | 1023.6 hPa | 0 mm | - | 0 W/m² | - |
| 1777493653 | 3.33° C | 62% | 1023.5 hPa | 0 mm | - | 0 W/m² | - |
| 1777493053 | 3.33° C | 61% | 1023.5 hPa | 0 mm | - | 0 W/m² | - |
| 1777492453 | 3.33° C | 60% | 1023.5 hPa | 0 mm | - | 0 W/m² | - |
| 1777491853 | 3.33° C | 59% | 1023.5 hPa | 0 mm | - | 0 W/m² | - |
| 1777491254 | 3.89° C | 58% | 1023.6 hPa | 0 mm | - | 0 W/m² | - |
| 1777490653 | 3.89° C | 57% | 1023.6 hPa | 0 mm | - | 0 W/m² | - |
| 1777490052 | 4.44° C | 55% | 1023.5 hPa | 0 mm | - | 0 W/m² | - |
* Rain latest hour (hover to see other rain measurements)
** Current wind speed in m/s (hover to see current wind gust speed)